Location: Newark
(25.4800°N, 85.7200°E)
Time: 08:46:19
(UTC+00:00)

Vanguard 1 Rocket - Pass Details

Date: 25 August 2019
Orbit: 650 x 4226 km, 34.3° (Epoch: 13 October)

Event Time Altitude Azimuth Distance (km) Brightness Sun altitude
Rises 15:03:30 0° 201° (SSW) 5,558 11.3 -30.2°
Enters shadow 15:07:45 - 188° (S) 4,363 10.6 -31.0°
Reaches altitude 10° 15:10:39 10° 175° (S) 3,641 - -31.5°
Maximum altitude 15:13:41 12° 154° (SSE) 3,101 - -32.1°
Drops below altitude 10° 15:16:14 10° 133° (SE) 2,946 - -32.6°
Sets 15:20:25 0° 101° (E) 3,434 - -33.4°
